This is the latest recevied weather packets stored in our database for station/object HJ3GNC-11. If no packets are shown the sender has not sent any weather packets the latest 10 day(s).
| Time | Temp. | Humidity | Pressure | Rain* | Wind** | Luminosity | Snow |
|---|---|---|---|---|---|---|---|
| 1777263628 | 11.67° C | 93% | 1018 hPa | 0 mm | - | - | - |
| 1777262684 | 13.33° C | 93% | 1018 hPa | 0 mm | - | - | - |
| 1777261735 | 12.22° C | 93% | 1018 hPa | 0 mm | - | - | - |
| 1777260709 | 14.44° C | 89% | 1018 hPa | 0 mm | - | - | - |
| 1777259739 | 13.33° C | 89% | 1018 hPa | 0 mm | - | - | - |
| 1777258786 | 12.22° C | 89% | 1018 hPa | 0 mm | - | - | - |
| 1777257832 | 14.44° C | 84% | 1017 hPa | 0 mm | - | - | - |
| 1777256888 | 13.33° C | 84% | 1017 hPa | 0 mm | - | - | - |
| 1777255909 | 12.22° C | 84% | 1017 hPa | 0 mm | - | - | - |
| 1777254961 | 14.44° C | 87% | 1017 hPa | 0 mm | - | - | - |
| 1777254018 | 14.44° C | 85% | 1017 hPa | 0 mm | - | - | - |
| 1777253075 | 14.44° C | 81% | 1016 hPa | 0 mm | - | - | - |
| 1777252128 | 14.44° C | 83% | 1016 hPa | 0 mm | - | - | - |
| 1777251088 | 14.44° C | 86% | 1016 hPa | 0 mm | - | - | - |
| 1777250116 | 14.44° C | 86% | 1016 hPa | 0 mm | - | - | - |
| 1777249168 | 14.44° C | 84% | 1015 hPa | 0 mm | - | - | - |
| 1777248225 | 14.44° C | 86% | 1015 hPa | 0 mm | - | - | - |
| 1777247271 | 14.44° C | 86% | 1015 hPa | 0 mm | - | - | - |
| 1777246321 | 14.44° C | 86% | 1015 hPa | 0 mm | - | - | - |
| 1777245360 | 14.44° C | 81% | 1014 hPa | 0 mm | - | - | - |
| 1777244409 | 14.44° C | 83% | 1014 hPa | 0 mm | - | - | - |
| 1777243461 | 15.56° C | 78% | 1014 hPa | 0 mm | - | - | - |
| 1777242497 | 14.44° C | 78% | 1013 hPa | 0 mm | - | - | - |
| 1777241535 | 15.56° C | 79% | 1013 hPa | 0 mm | - | - | - |
| 1777240582 | 14.44° C | 79% | 1013 hPa | 0 mm | - | - | - |
* Rain latest hour (hover to see other rain measurements)
** Current wind speed in m/s (hover to see current wind gust speed)